Weather History for PAQT - November, 2013

Change the Weather History Date:

Thursday, November 14, 2013

  Actual Average (PAKU) Record (PAKU)
Temperature  
Mean Temperature 13 °F -  
Max Temperature 25 °F 4 °F 24 °F (2013)
Min Temperature 1 °F -1 °F -28 °F (1989)
Degree Days  
Heating Degree Days 52    
Moisture  
Dew Point 17 °F    
Average Humidity 95    
Maximum Humidity 100    
Minimum Humidity 86    
Precipitation  
Precipitation 0.00 in - - ()
Sea Level Pressure  
Sea Level Pressure 29.48 in    
Wind  
Wind Speed 18 mph (West)    
Max Wind Speed 33 mph    
Max Gust Speed 45 mph    
Visibility 3 miles    
Events Fog , Snow    
Averages and records for this station are not official NWS values.
T = Trace of Precipitation, MM = Missing Value Source: NWS Daily Summary

Daily Weather History Graph

Daily Weather History Graph

Search for Another Location

Airport or City:

Trip Planner

Search our weather history database for the weather conditions in past years. The results will help you decide how hot, cold, wet, or windy it might be!

Date:

Astronomy

Nov. 14, 2013 Rise Set
Actual Time 10:55 AM AKST 2:40 PM AKST
Civil Twilight 9:15 AM AKST 4:20 PM AKST
Nautical Twilight 7:52 AM AKST 5:42 PM AKST
Astronomical Twilight 6:39 AM AKST 6:55 PM AKST
Moon 2:52 PM AKST (11/14) 6:05 AM AKST (11/14)
Length of Visible Light 7h 04m
Length of Day
3h 45m
Waxing Gibbous, 92% of the Moon is Illuminated
Nov 14
Waxing Gibbous
Nov 17
Full
Nov 25
Last Quarter
Dec 2
New
Dec 9
First Quarter

Hourly Weather History & Observations

Time (AKST) Temp. Windchill Dew Point Humidity Pressure Visibility Wind Dir Wind Speed Gust Speed Precip Events Conditions
12:17 AM 24.8 °F 16.1 °F 24.8 °F 100% 29.04 in 1.2 mi West 8.1 mph - 0.00 in Snow Light Snow
12:25 AM 24.8 °F 16.1 °F 24.8 °F 100% 29.04 in 2.0 mi West 8.1 mph - 0.00 in Snow Light Snow
12:51 AM 24.8 °F 15.3 °F 24.8 °F 100% 29.05 in 1.8 mi West 9.2 mph - 0.00 in Snow Light Snow
12:53 AM 25.0 °F 15.5 °F 25.0 °F 100% 29.06 in 1.8 mi West 9.2 mph - 0.00 in Snow Light Snow
1:03 AM 24.8 °F 14.6 °F 24.8 °F 100% 29.06 in 2.0 mi West 10.4 mph - 0.00 in Snow Light Snow
1:36 AM 24.8 °F 12.9 °F 24.8 °F 100% 29.07 in 4.0 mi West 13.8 mph - 0.00 in Snow Light Snow
1:53 AM 25.0 °F 12.2 °F 24.1 °F 96% 29.09 in 4.0 mi West 16.1 mph - 0.00 in Snow Light Snow
2:53 AM 24.1 °F 9.8 °F 23.0 °F 96% 29.15 in 3.0 mi West 19.6 mph - 0.00 in Snow Light Snow
2:56 AM 24.8 °F 11.1 °F 23.0 °F 93% 29.15 in 2.5 mi West 18.4 mph - 0.00 in Snow Light Snow
3:11 AM 24.8 °F 10.7 °F 24.8 °F 100% 29.16 in 1.2 mi West 19.6 mph - 0.00 in Snow Light Snow
3:18 AM 24.8 °F 9.6 °F 24.8 °F 100% 29.17 in 2.0 mi West 23.0 mph - 0.00 in Snow Light Snow
3:27 AM 24.8 °F 9.6 °F 24.8 °F 100% 29.18 in 4.0 mi West 23.0 mph - 0.00 in Snow Light Snow
3:35 AM 24.8 °F 9.6 °F 24.8 °F 100% 29.18 in 4.0 mi West 23.0 mph 31.1 mph 0.00 in   Overcast
3:53 AM 25.0 °F 8.6 °F 25.0 °F 100% 29.20 in 3.0 mi West 27.6 mph - 0.00 in   Overcast
4:01 AM 24.8 °F 8.4 °F 24.8 °F 100% 29.21 in 2.5 mi West 27.6 mph - 0.00 in Snow Blowing Snow
4:18 AM 24.8 °F 7.6 °F 24.8 °F 100% 29.22 in 1.0 mi West 31.1 mph 41.4 mph 0.00 in Snow Light Snow
4:20 AM 24.8 °F 8.1 °F 24.8 °F 100% 29.22 in 0.8 mi West 28.8 mph 41.4 mph 0.00 in Snow Blowing Snow
4:27 AM 24.8 °F 8.4 °F 24.8 °F 100% 29.23 in 1.2 mi West 27.6 mph 41.4 mph 0.00 in Snow Blowing Snow
4:53 AM 23.0 °F 4.9 °F 21.9 °F 96% 29.26 in 1.5 mi West 32.2 mph 38.0 mph 0.00 in Snow Blowing Snow
5:45 AM 21.2 °F 3.9 °F 19.4 °F 93% 29.31 in 2.5 mi West 26.5 mph 35.7 mph N/A Snow Blowing Snow
5:51 AM 21.2 °F 3.9 °F 19.4 °F 93% 29.31 in 3.0 mi West 26.5 mph - N/A Snow Blowing Snow
5:53 AM 21.0 °F 3.3 °F 19.9 °F 96% 29.32 in 3.0 mi West 27.6 mph - N/A Snow Blowing Snow
6:03 AM 19.4 °F 1.1 °F 19.4 °F 100% 29.32 in 2.5 mi West 27.6 mph - N/A Snow Blowing Snow
6:18 AM 19.4 °F 0.5 °F 19.4 °F 100% 29.33 in 1.8 mi West 29.9 mph - N/A Snow Blowing Snow
6:53 AM 19.9 °F 1.5 °F 19.0 °F 96% 29.35 in 1.5 mi West 28.8 mph - N/A Snow Blowing Snow
7:53 AM 19.9 °F 0.7 °F 19.0 °F 96% 29.37 in 1.2 mi WSW 32.2 mph 39.1 mph N/A Snow Blowing Snow
8:53 AM 19.0 °F -0.3 °F 18.0 °F 96% 29.40 in 1.0 mi WSW 31.1 mph 40.3 mph N/A Snow Blowing Snow
9:53 AM 19.0 °F -0.5 °F 18.0 °F 96% 29.42 in 1.0 mi WSW 32.2 mph 44.9 mph N/A Snow Blowing Snow
10:51 AM 19.4 °F 0.5 °F 17.6 °F 93% 29.44 in 1.2 mi WSW 29.9 mph 40.3 mph 0.00 in Snow Blowing Snow
10:53 AM 19.0 °F 0.0 °F 18.0 °F 96% 29.44 in 1.2 mi WSW 29.9 mph - 0.00 in Snow Blowing Snow
11:13 AM 19.4 °F -0.3 °F 17.6 °F 93% 29.43 in 0.8 mi WSW 33.4 mph 36.8 mph N/A Snow Blowing Snow
11:29 AM 19.4 °F 0.2 °F 17.6 °F 93% 29.44 in 0.8 mi WSW 31.1 mph - N/A Snow Blowing Snow
11:53 AM 19.0 °F -0.5 °F 18.0 °F 96% 29.44 in 0.2 mi WSW 32.2 mph - 0.00 in Fog , Snow Light Snow
12:53 PM 19.0 °F 1.0 °F 18.0 °F 96% 29.47 in 0.5 mi WSW 26.5 mph - 0.00 in Fog , Snow Light Snow
2:37 PM 17.6 °F 0.9 °F 15.8 °F 93% 29.60 in 3.0 mi NW 20.7 mph 28.8 mph 0.00 in Snow Light Snow
2:53 PM 17.1 °F 0.6 °F 15.1 °F 92% 29.62 in 4.0 mi NW 19.6 mph 26.5 mph 0.00 in Snow Light Snow
3:26 PM 15.8 °F 0.3 °F 12.2 °F 86% 29.67 in 2.5 mi NW 16.1 mph 26.5 mph 0.00 in Snow Light Snow
3:53 PM 15.1 °F 0.5 °F 12.0 °F 88% 29.71 in 2.0 mi NNW 13.8 mph - 0.00 in Snow Light Snow
4:02 PM 15.8 °F -0.2 °F 12.2 °F 86% 29.71 in 1.5 mi NNW 17.3 mph 24.2 mph 0.00 in Snow Light Snow
4:12 PM 14.0 °F 0.5 °F 12.2 °F 93% 29.73 in 3.0 mi NW 11.5 mph 20.7 mph 0.00 in Snow Light Snow
4:51 PM 14.0 °F -1.4 °F 10.4 °F 86% 29.78 in 3.0 mi NW 15.0 mph - 0.00 in Snow Light Snow
4:53 PM 14.0 °F -1.4 °F 12.0 °F 92% 29.78 in 2.5 mi NW 15.0 mph - 0.00 in Snow Light Snow
5:17 PM 14.0 °F 0.5 °F 12.2 °F 93% 29.80 in 1.2 mi WNW 11.5 mph - 0.00 in Snow Light Snow
5:34 PM 14.0 °F -0.8 °F 12.2 °F 93% 29.82 in 3.0 mi WNW 13.8 mph - 0.00 in Snow Light Snow
5:41 PM 14.0 °F -1.4 °F 12.2 °F 93% 29.82 in 1.8 mi WNW 15.0 mph - 0.00 in Snow Light Snow
5:51 PM 14.0 °F -1.4 °F 12.2 °F 93% 29.83 in 2.5 mi WNW 15.0 mph - 0.00 in Snow Light Snow
5:53 PM 14.0 °F -2.0 °F 12.0 °F 92% 29.84 in 3.0 mi WNW 16.1 mph - 0.00 in Snow Light Snow
6:05 PM 12.2 °F -3.1 °F 10.4 °F 92% 29.85 in 10.0 mi WNW 13.8 mph - 0.00 in   Overcast
6:53 PM 12.0 °F -6.0 °F 10.0 °F 92% 29.89 in 6.0 mi West 19.6 mph - 0.00 in Snow Blowing Snow
7:08 PM 12.2 °F -5.3 °F 10.4 °F 92% 29.89 in 1.0 mi West 18.4 mph - 0.00 in Snow Light Snow
7:31 PM 10.4 °F -7.7 °F 10.4 °F 100% 29.90 in 1.2 mi West 18.4 mph - 0.00 in Snow Light Snow
7:51 PM 10.4 °F -8.2 °F 10.4 °F 100% 29.91 in 2.5 mi West 19.6 mph - 0.00 in Snow Light Snow
7:53 PM 10.9 °F -6.5 °F 10.0 °F 96% 29.92 in 3.0 mi West 17.3 mph - 0.00 in Snow Blowing Snow
8:53 PM 8.1 °F -9.0 °F 7.0 °F 95% 29.96 in 10.0 mi West 15.0 mph - N/A   Overcast
9:53 PM 5.0 °F -11.6 °F 3.0 °F 92% 29.99 in 10.0 mi West 12.7 mph - N/A   Partly Cloudy
10:53 PM 1.0 °F -18.7 °F -0.9 °F 91% 30.00 in 10.0 mi WSW 16.1 mph - N/A   Mostly Cloudy
11:53 PM 3.0 °F -16.1 °F 1.0 °F 91% 30.01 in 10.0 mi WSW 16.1 mph - N/A   Overcast